This is the latest recevied weather packets stored in our database for station/object VE3DVC. If no packets are shown the sender has not sent any weather packets the latest 1 day(s).
| Time | Temp. | Humidity | Pressure | Rain* | Wind** | Luminosity | Snow |
|---|---|---|---|---|---|---|---|
| 1778026228 | 10° C | 92% | 1008.3 hPa | 0 mm | 0 m/s | - | - |
| 1778025507 | 10° C | 92% | 1007.8 hPa | 0 mm | 0 m/s | - | - |
| 1778024788 | 10° C | 92% | 1007.8 hPa | 0 mm | 0 m/s | - | - |
| 1778024068 | 10° C | 92% | 1007.7 hPa | 0 mm | 0 m/s | - | - |
| 1778023348 | 10° C | 92% | 1007.7 hPa | 0 mm | 0 m/s | - | - |
| 1778022627 | 10° C | 92% | 1007.6 hPa | 0 mm | 0 m/s | - | - |
| 1778021561 | 10° C | 92% | 1007.4 hPa | 0 mm | 0 m/s | - | - |
| 1778020841 | 10° C | 92% | 1007.5 hPa | 0 mm | 0 m/s | - | - |
| 1778020120 | 10° C | 92% | 1007.4 hPa | 0 mm | 0 m/s | - | - |
| 1778019401 | 10° C | 92% | 1007.7 hPa | 0 mm | 0 m/s | - | - |
| 1778018680 | 10° C | 92% | 1007.7 hPa | 0 mm | 0 m/s | - | - |
| 1778017960 | 10° C | 91% | 1007.6 hPa | 0 mm | 0 m/s | - | - |
| 1778017241 | 10° C | 91% | 1007.6 hPa | 0 mm | 0 m/s | - | - |
| 1778016521 | 10° C | 91% | 1007.5 hPa | 0 mm | 0 m/s | - | - |
| 1778015801 | 10° C | 90% | 1007.6 hPa | 0 mm | 0 m/s | - | - |
| 1778015081 | 10° C | 90% | 1007.6 hPa | 0 mm | 0 m/s | - | - |
| 1778014017 | 10.56° C | 88% | 1007.6 hPa | 0 mm | 0 m/s | - | - |
| 1778013296 | 11.11° C | 86% | 1007.6 hPa | 0 mm | 0 m/s | - | - |
| 1778012241 | 12.22° C | 82% | 1007.2 hPa | 0 mm | 0 m/s | - | - |
| 1778011521 | 13.89° C | 78% | 1006.7 hPa | 0 mm | 0.89 m/s, 313° | - | - |
| 1778010801 | 15° C | 77% | 1006.7 hPa | 0 mm | 0 m/s | - | - |
| 1778010081 | 15° C | 76% | 1006.3 hPa | 0 mm | 0 m/s | - | - |
| 1778009361 | 15.56° C | 78% | 1006.3 hPa | 0 mm | 0.45 m/s, 238° | - | - |
| 1778008641 | 15.56° C | 78% | 1006 hPa | 0 mm | 0 m/s | - | - |
| 1778007571 | 15.56° C | 75% | 1005.8 hPa | 0 mm | 0 m/s | - | - |
* Rain latest hour (hover to see other rain measurements)
** Current wind speed in m/s (hover to see current wind gust speed)